This is the latest recevied weather packets stored in our database for station/object W5HKR. If no packets are shown the sender has not sent any weather packets the latest 10 day(s).
| Time | Temp. | Humidity | Pressure | Rain* | Wind** | Luminosity | Snow |
|---|---|---|---|---|---|---|---|
| 1778165514 | 18.33° C | 91% | 990.6 hPa | 0 mm | - | - | - |
| 1778165303 | 18.33° C | 91% | 990.6 hPa | 0 mm | - | - | - |
| 1778165003 | 18.33° C | 91% | 990.6 hPa | 0 mm | - | - | - |
| 1778164704 | 18.33° C | 91% | 990.6 hPa | 0 mm | - | - | - |
| 1778164433 | 16.11° C | 84% | 988.6 hPa | 0 mm | - | - | - |
| 1778164403 | 18.33° C | 91% | 990.6 hPa | 0 mm | - | - | - |
| 1778163802 | 16.11° C | 85% | 988.5 hPa | 0 mm | - | - | - |
| 1778163501 | 16.11° C | 85% | 988.4 hPa | 0 mm | - | - | - |
| 1778163354 | 18.33° C | 91% | 990.6 hPa | 0 mm | - | - | - |
| 1778163203 | 18.33° C | 91% | 990.6 hPa | 0 mm | - | - | - |
| 1778162903 | 15.56° C | 85% | 988.2 hPa | 0 mm | - | - | - |
| 1778162602 | 18.33° C | 91% | 990.6 hPa | 0 mm | - | - | - |
| 1778162303 | 18.33° C | 91% | 990.6 hPa | 0 mm | - | - | - |
| 1778162273 | 15.56° C | 86% | 988.5 hPa | 0 mm | - | - | - |
| 1778162004 | 18.33° C | 91% | 990.6 hPa | 0 mm | - | - | - |
| 1778161704 | 15.56° C | 87% | 988.8 hPa | 0 mm | - | - | - |
| 1778161402 | 18.33° C | 91% | 990.6 hPa | 0 mm | - | - | - |
| 1778161193 | 18.33° C | 91% | 990.6 hPa | 0 mm | - | - | - |
| 1778161105 | 18.33° C | 91% | 990.6 hPa | 0 mm | - | - | - |
| 1778160803 | 18.33° C | 91% | 990.6 hPa | 0 mm | - | - | - |
| 1778160505 | 18.33° C | 91% | 990.6 hPa | 0 mm | - | - | - |
| 1778160202 | 18.33° C | 91% | 990.6 hPa | 0 mm | - | - | - |
| 1778160113 | 15.56° C | 88% | 988.8 hPa | 0 mm | - | - | - |
| 1778159903 | 18.33° C | 91% | 990.6 hPa | 0 mm | - | - | - |
| 1778159603 | 18.33° C | 91% | 990.6 hPa | 0 mm | - | - | - |
* Rain latest hour (hover to see other rain measurements)
** Current wind speed in m/s (hover to see current wind gust speed)